N1WTL Weather Reports


time (UTC)temp
C
wind
direction
speed
KPH
gust
KPH
rain 1hr
cm
rain 24hr
cm
rain mn
cm
humidity
%
barometer
mb
20260507040014 6 40 0.0 3.2 0.00 0.03 0.00 91 1003.0
20260507034522 6 3 0.0 1.6 0.00 0.03 0.03 91 1003.5
20260507033030 6 11 0.0 4.8 0.00 0.03 0.03 91 1003.6
20260507031532 6 39 0.0 3.2 0.00 0.03 0.03 90 1003.6
20260507030034 6 15 0.0 3.2 0.00 0.03 0.03 91 1003.4
20260507024518 7 208 1.6 4.8 0.00 0.03 0.03 91 1003.6
20260507023020 7 174 0.0 0.0 0.00 0.03 0.03 93 1003.1
20260507021543 7 174 0.0 1.6 0.00 0.03 0.03 92 1003.1
20260507020030 7 2 0.0 3.2 0.00 0.03 0.03 92 1003.0
20260507014528 7 352 0.0 1.6 0.00 0.03 0.03 92 1003.1
20260507013016 7 231 0.0 1.6 0.00 0.03 0.03 93 1002.8
20260507011528 8 58 0.0 1.6 0.00 0.03 0.03 93 1002.6
20260507010037 8 197 0.0 1.6 0.00 0.03 0.03 93 1002.7
20260507004527 8 274 0.0 1.6 0.00 0.03 0.03 93 1002.5
20260507003027 8 269 0.0 1.6 0.00 0.03 0.03 93 1002.3
20260507001519 8 342 0.0 1.6 0.00 0.03 0.03 93 1002.1
20260507000032 8 1 0.0 1.6 0.00 0.03 0.03 93 1002.0
20260506234528 8 274 0.0 0.0 0.00 0.03 0.03 93 1001.8
20260506233027 9 274 0.0 1.6 0.00 0.03 0.03 92 1001.8
20260506231528 9 274 0.0 1.6 0.00 0.03 0.03 92 1001.7
20260506230020 10 75 0.0 3.2 0.00 0.03 0.03 92 1001.5
20260506224524 10 248 3.2 9.7 0.00 0.03 0.03 91 1001.1
20260506223028 10 231 3.2 14.5 0.00 0.03 0.03 88 1001.0
20260506221530 11 247 1.6 8.0 0.00 0.03 0.03 90 1000.5
20260506220034 13 242 3.2 4.8 0.00 0.03 0.03 88 1000.4
20260506214520 13 247 0.0 1.6 0.00 0.03 0.03 92 1000.4
20260506213030 13 247 0.0 1.6 0.00 0.03 0.03 92 1000.5
20260506211529 13 247 0.0 1.6 0.00 0.03 0.03 92 1000.5
20260506210035 13 247 0.0 0.0 0.00 0.08 0.03 91 1000.6
20260506204518 13 247 0.0 1.6 0.00 0.08 0.03 91 1000.6
20260506203027 13 247 0.0 1.6 0.00 0.08 0.03 92 1000.7
20260506201533 13 246 0.0 1.6 0.00 0.08 0.03 92 1000.7
20260506200010 13 149 0.0 1.6 0.03 0.08 0.03 93 1000.8
20260506194513 13 108 0.0 1.6 0.03 0.08 0.03 93 1001.2
20260506193020 13 200 0.0 0.0 0.03 0.08 0.03 93 1001.4
20260506191522 13 200 0.0 0.0 0.03 0.08 0.03 92 1001.5
20260506190026 13 200 0.0 0.0 0.00 0.05 0.00 92 1001.5
20260506184514 13 200 0.0 0.0 0.00 0.05 0.00 92 1001.6
20260506183014 13 200 0.0 0.0 0.00 0.05 0.00 91 1001.7
20260506181527 13 200 0.0 0.0 0.00 0.05 0.00 91 1002.1
20260506180024 14 200 0.0 3.2 0.00 0.05 0.00 90 1002.4
20260506174526 14 213 0.0 1.6 0.00 0.05 0.00 90 1002.5
20260506173014 14 186 0.0 4.8 0.00 0.05 0.00 89 1002.5
20260506171533 14 210 1.6 3.2 0.00 0.05 0.00 88 1002.2
20260506170023 14 149 0.0 1.6 0.00 0.05 0.00 88 1002.5
20260506164526 14 66 0.0 0.0 0.00 0.05 0.00 88 1002.7
20260506163031 15 193 0.0 3.2 0.00 0.05 0.00 86 1002.9
20260506161516 15 201 0.0 4.8 0.00 0.05 0.00 85 1003.2
20260506160032 15 191 0.0 1.6 0.00 0.05 0.00 86 1003.5
20260506154530 15 197 0.0 1.6 0.00 0.05 0.00 85 1003.6
20260506153026 15 213 1.6 4.8 0.00 0.05 0.00 82 1003.8
20260506151534 15 221 0.0 3.2 0.00 0.05 0.00 84 1003.7
20260506150026 15 179 1.6 3.2 0.00 0.05 0.00 84 1003.8
20260506144522 14 246 1.6 3.2 0.00 0.05 0.00 84 1003.8
20260506143039 14 99 0.0 1.6 0.00 0.05 0.00 88 1003.7
20260506141529 13 219 0.0 1.6 0.00 0.05 0.00 90 1003.5
20260506140035 13 220 0.0 1.6 0.00 0.05 0.00 92 1003.3
20260506134519 12 220 0.0 1.6 0.00 0.05 0.00 92 1004.0
20260506133025 12 220 0.0 1.6 0.00 0.05 0.00 92 1004.5
20260506131528 12 220 0.0 1.6 0.00 0.05 0.00 92 1004.6
20260506130030 11 56 0.0 1.6 0.00 0.05 0.00 93 1004.3
20260506124527 11 53 0.0 1.6 0.00 0.05 0.00 93 1004.5
20260506123018 11 53 0.0 1.6 0.00 0.05 0.00 93 1004.5
20260506121522 11 53 0.0 1.6 0.00 0.05 0.00 93 1004.6
20260506120031 11 53 0.0 1.6 0.00 0.05 0.00 94 1004.8
20260506114539 11 53 0.0 1.6 0.00 0.05 0.00 94 1005.0
20260506113029 10 226 0.0 0.0 0.00 0.05 0.00 94 1005.1
20260506111521 10 225 0.0 1.6 0.00 0.05 0.00 94 1005.0
20260506110034 10 226 0.0 0.0 0.00 0.05 0.00 94 1004.9
20260506104528 10 226 0.0 0.0 0.00 0.05 0.00 94 1004.9
20260506103030 10 226 0.0 1.6 0.00 0.05 0.00 94 1005.2
20260506101545 10 226 0.0 1.6 0.00 0.05 0.00 94 1005.1
20260506100024 10 226 0.0 0.0 0.00 0.05 0.00 93 1005.1
20260506094526 10 226 0.0 0.0 0.00 0.05 0.00 93 1005.2
20260506093028 10 225 0.0 1.6 0.00 0.05 0.00 93 1005.4
20260506091530 10 225 0.0 0.0 0.00 0.05 0.00 93 1005.5
20260506090029 10 227 0.0 3.2 0.00 0.05 0.00 93 1005.3
20260506084529 10 75 0.0 1.6 0.00 0.05 0.00 93 1005.4
20260506083028 10 75 0.0 1.6 0.00 0.05 0.00 92 1005.2
20260506081511 11 75 0.0 1.6 0.00 0.05 0.00 92 1005.0
20260506073025 11 214 0.0 1.6 0.00 0.05 0.00 92 1005.8
20260506071526 11 213 0.0 1.6 0.00 0.05 0.00 91 1005.7
20260506061526 11 186 0.0 0.0 0.00 0.05 0.00 87 1005.6
20260506044528 12 73 0.0 0.0 0.00 0.05 0.00 90 1003.8
20260506043020 12 73 0.0 1.6 0.00 0.05 0.00 90 1003.7
20260506041527 12 73 0.0 3.2 0.00 0.05 0.00 89 1003.8